Temp
9 10 10 10 11 10 11 11 11 9 10 11 11 11 10 10 10 9 9 9 8 8 8 8 8 8 8 8 7 7 7 7 6 7 6 6 6 5
8 9 9 9 9 11 11 10 10 10 10 11 11 11 11 10 10 9 9 9 9 9 9 8 8 8 8 8 7 7 7 7 7 6 6 6 6 6
8 8 9 9 10 10 11 11 9 9 10 10 11 10 10 9 9 9 10 10 9 9 9 8 8 8 8 8 7 7 7 7 7 7 6 6 6 5
8 8 8 9 9 10 11 12 10 9 9 9 10 10 10 9 9 9 10 9 9 9 8 8 8 8 8 8 7 7 7 7 7 7 6 6 6 6
8 8 9 8 9 9 11 11 10 10 10 9 9 9 10 9 8 9 9 9 9 9 9 8 8 8 8 8 8 8 8 7 7 7 7 6 6 5
7 8 8 9 8 9 8 10 10 8 8 8 8 9 9 9 8 8 8 9 9 9 9 9 8 8 8 8 8 8 8 8 7 7 7 6 6 6
7 7 7 8 8 8 8 9 8 8 8 8 8 9 8 8 8 9 8 8 8 8 8 8 8 8 8 8 8 8 8 8 7 7 7 7 6 6
6 7 7 8 8 8 8 9 9 8 8 8 8 8 8 8 8 8 8 7 7 8 8 8 8 8 8 8 8 8 8 7 7 7 7 7 6 6
5 6 8 8 8 8 8 9 8 9 9 10 9 8 8 8 8 8 7 7 7 8 8 7 8 8 8 8 7 7 7 6 6 6 6 6 6 6
4 7 7 7 8 8 8 8 8 8 8 8 8 8 9 8 7 7 7 7 7 7 7 7 8 8 8 7 6 6 6 6 6 6 6 6 5 5
5 6 7 7 8 8 8 8 8 8 8 8 7 7 7 7 7 7 6 6 6 7 7 6 7 7 7 6 6 6 5 6 5 5 5 5 5 5
4 6 7 7 8 8 8 8 7 7 7 7 7 6 6 7 7 7 6 6 6 5 6 5 6 4 4 4 5 5 5 5 4 4 4 4 4 4
3 6 6 7 7 8 7 7 7 7 7 7 6 6 6 6 6 6 5 5 5 5 5 5 4 4 3 3 3 3 4 4 4 3 2 3 3 3
3 3 5 6 7 7 7 7 7 7 6 6 6 6 6 5 6 5 5 5 5 5 4 4 4 3 3 3 3 3 2 2 2 2 2 2 2 2
-1 0 2 3 6 7 7 6 6 6 6 6 5 5 6 6 5 4 4 4 4 4 4 3 3 3 2 2 2 2 1 2 1 1 1 1 1 1
-2 -1 0 2 4 5 5 6 5 5 5 6 5 5 4 4 4 4 3 3 3 3 3 3 3 3 2 2 1 1 1 -0 0 0 0 0 -0 -1
-3 -2 -1 -0 0 2 3 3 4 4 4 4 3 3 3 3 3 3 3 3 3 3 3 3 3 2 2 1 1 0 -0 -1 -1 -1 -1 -1 -1 -2
-3 -3 -2 -1 -0 0 1 2 2 2 2 2 2 2 3 3 3 3 3 3 3 3 2 2 2 1 0 1 0 -0 -1 -2 -2 -2 -2 -3 -3 -3
-3 -3 -3 -3 -1 -0 0 1 2 2 1 2 2 2 2 2 2 2 2 2 2 2 1 1 1 0 -0 -1 -1 -2 -2 -3 -3 -3 -3 -4 -3 -3
-4 -4 -3 -3 -2 -1 -1 -1 0 1 1 -0 0 1 1 1 1 1 1 1 1 0 0 -0 -1 -1 -2 -3 -3 -3 -3 -4 -4 -4 -4 -4 -5 -4
-4 -4 -4 -3 -3 -2 -2 -2 -1 -0 0 0 -0 -0 -0 -0 0 0 0 -0 -1 -1 -1 -2 -2 -3 -4 -4 -4 -4 -4 -4 -4 -5 -6 -5 -5 -4
-4 -4 -4 -4 -4 -3 -3 -2 -2 -1 -1 -1 -1 -1 -1 -1 -1 -1 -1 -1 -2 -2 -3 -3 -4 -5 -5 -5 -5 -5 -5 -5 -6 -6 -6 -6 -6 -6
-5 -5 -5 -4 -4 -4 -4 -4 -3 -3 -2 -2 -1 -2 -2 -2 -2 -2 -3 -3 -3 -4 -4 -4 -5 -5 -6 -6 -6 -6 -6 -6 -6 -6 -6 -6 -7 -7
Height
1446 1452 1456 1460 1465 1469 1475 1479 1484 1487 1489 1492 1495 1500 1504 1508 1512 1517 1520 1525 1528 1530 1532 1535 1537 1540 1542 1543 1544 1544 1545 1545 1546 1547 1548 1547 1548 1548
1438 1442 1447 1452 1456 1461 1466 1471 1476 1481 1484 1487 1490 1494 1499 1502 1504 1508 1512 1518 1521 1523 1525 1528 1531 1533 1536 1537 1538 1538 1539 1540 1541 1542 1542 1543 1542 1542
1427 1432 1438 1443 1446 1451 1457 1462 1467 1472 1477 1481 1485 1488 1492 1496 1498 1501 1504 1508 1511 1514 1516 1518 1521 1525 1528 1531 1533 1533 1533 1534 1535 1536 1536 1536 1536 1536
1418 1423 1428 1434 1437 1442 1447 1453 1457 1463 1469 1473 1478 1482 1485 1489 1493 1496 1499 1502 1504 1508 1510 1512 1514 1518 1520 1523 1525 1526 1527 1527 1528 1529 1529 1529 1529 1529
1408 1411 1418 1423 1427 1432 1437 1443 1449 1455 1460 1466 1469 1475 1477 1482 1486 1490 1494 1496 1499 1502 1504 1507 1508 1510 1513 1514 1516 1518 1519 1519 1520 1520 1520 1520 1520 1520
1396 1401 1406 1412 1416 1422 1428 1433 1440 1446 1452 1457 1460 1466 1470 1474 1479 1483 1487 1489 1492 1495 1497 1500 1502 1504 1506 1507 1508 1510 1510 1510 1511 1511 1511 1511 1511 1511
1385 1391 1396 1401 1406 1411 1418 1423 1431 1438 1442 1448 1451 1457 1461 1464 1469 1476 1480 1484 1487 1489 1491 1494 1496 1497 1499 1499 1500 1501 1502 1502 1502 1501 1502 1501 1501 1502
1373 1380 1385 1391 1397 1402 1408 1416 1421 1428 1433 1438 1442 1448 1453 1459 1465 1468 1474 1476 1479 1483 1485 1487 1488 1489 1491 1492 1493 1493 1493 1492 1491 1491 1491 1490 1489 1490
1363 1369 1374 1378 1387 1394 1400 1408 1414 1420 1425 1430 1433 1440 1446 1452 1458 1461 1466 1470 1473 1476 1478 1479 1481 1482 1484 1484 1485 1484 1484 1483 1482 1482 1481 1480 1479 1479
1352 1357 1365 1368 1375 1385 1390 1398 1405 1412 1416 1422 1428 1435 1441 1448 1451 1456 1460 1463 1467 1469 1471 1470 1473 1474 1476 1475 1476 1476 1476 1474 1472 1471 1471 1470 1470 1469
1339 1346 1352 1359 1366 1376 1379 1387 1397 1403 1410 1416 1422 1429 1436 1440 1446 1448 1451 1455 1457 1460 1464 1463 1465 1466 1467 1467 1466 1466 1466 1464 1463 1462 1461 1460 1460 1459
1330 1336 1339 1347 1354 1365 1371 1377 1387 1394 1401 1409 1416 1422 1428 1433 1437 1441 1444 1447 1451 1454 1458 1459 1458 1460 1458 1457 1458 1458 1457 1457 1455 1454 1453 1451 1451 1449
1322 1325 1330 1336 1344 1354 1362 1368 1378 1386 1395 1404 1410 1415 1420 1425 1430 1435 1437 1441 1444 1447 1450 1452 1450 1453 1453 1451 1450 1451 1450 1448 1447 1447 1445 1444 1442 1441
1318 1320 1318 1329 1338 1346 1352 1361 1372 1381 1387 1396 1404 1409 1413 1419 1424 1427 1431 1434 1437 1440 1443 1445 1443 1445 1445 1443 1443 1443 1442 1440 1439 1439 1437 1435 1434 1433
1320 1318 1316 1320 1325 1336 1345 1353 1361 1372 1379 1389 1395 1402 1408 1414 1417 1419 1423 1427 1430 1432 1435 1437 1437 1438 1438 1436 1436 1436 1435 1434 1432 1431 1429 1427 1426 1426
1323 1320 1316 1318 1317 1330 1339 1343 1355 1366 1374 1382 1389 1396 1401 1406 1409 1412 1416 1420 1423 1425 1428 1430 1431 1431 1430 1431 1430 1429 1429 1428 1426 1425 1423 1421 1420 1420
1322 1320 1320 1327 1330 1331 1337 1345 1353 1362 1372 1379 1384 1388 1393 1399 1404 1407 1410 1413 1416 1419 1421 1423 1424 1424 1424 1424 1424 1424 1424 1422 1421 1421 1419 1417 1417 1418
1329 1326 1328 1334 1332 1336 1341 1344 1353 1363 1370 1375 1380 1383 1388 1392 1397 1401 1404 1407 1410 1412 1415 1416 1417 1418 1418 1417 1419 1419 1419 1418 1417 1416 1416 1415 1415 1416
1329 1333 1338 1337 1337 1340 1346 1349 1354 1360 1366 1370 1375 1379 1383 1388 1392 1394 1397 1400 1403 1405 1407 1409 1411 1411 1410 1411 1414 1414 1415 1414 1413 1413 1413 1413 1413 1413
1335 1338 1341 1342 1345 1348 1349 1351 1354 1360 1363 1368 1373 1376 1381 1385 1388 1388 1390 1393 1396 1399 1401 1403 1404 1405 1406 1408 1409 1410 1410 1410 1410 1410 1410 1410 1409 1409
1344 1346 1348 1349 1351 1353 1353 1354 1357 1361 1364 1367 1370 1373 1379 1382 1382 1385 1386 1387 1390 1392 1395 1397 1399 1401 1403 1405 1405 1406 1407 1407 1407 1407 1407 1407 1406 1405
1346 1347 1347 1349 1351 1352 1354 1355 1357 1362 1365 1364 1368 1373 1374 1375 1377 1381 1382 1383 1386 1388 1390 1393 1396 1398 1400 1402 1403 1404 1404 1405 1404 1404 1405 1405 1403 1401
1353 1354 1354 1354 1353 1357 1357 1358 1359 1361 1364 1364 1366 1367 1370 1372 1375 1378 1380 1381 1382 1384 1386 1389 1392 1395 1398 1400 1402 1402 1402 1403 1403 1403 1402 1401 1399 1397
Wind_Speed
40 41 43 40 40 46 47 40 33 21 27 27 25 37 40 36 32 28 25 25 28 29 28 27 26 25 24 25 24 23 22 22 23 23 21 21 21 22
43 43 44 43 41 42 45 46 39 32 24 29 26 23 28 38 36 34 30 29 27 29 30 30 29 30 28 28 27 27 26 26 25 26 27 26 26 26
44 43 45 45 45 43 43 44 43 38 32 25 28 27 27 26 31 30 28 29 31 29 29 30 30 31 31 32 31 30 31 31 30 31 33 32 32 31
47 46 45 44 48 46 45 43 44 45 42 35 33 31 29 29 30 29 32 34 32 33 32 31 31 33 33 34 34 35 36 36 36 37 37 37 36 35
44 48 50 47 48 50 48 45 43 43 43 39 39 38 33 35 36 33 32 32 32 32 33 34 34 34 34 33 33 33 33 34 36 37 38 39 40 38
42 46 51 55 50 50 48 46 43 43 42 38 39 35 34 36 38 37 34 31 32 32 31 31 31 33 34 33 34 34 35 35 36 37 39 39 40 41
39 46 52 53 54 50 49 46 44 42 41 39 40 37 38 40 40 36 35 33 33 32 31 30 31 33 36 34 34 33 33 33 34 36 35 36 39 40
43 47 50 52 56 52 52 45 46 45 44 42 42 41 44 41 37 35 34 34 33 32 31 30 30 31 30 29 31 33 36 37 36 35 37 40 39 39
54 49 50 57 54 51 46 42 46 41 41 40 41 40 37 39 37 34 35 32 32 28 26 23 24 28 30 32 31 27 28 31 32 34 36 36 36 38
47 47 54 47 57 49 46 44 46 42 39 38 37 36 34 31 32 33 30 29 29 28 25 29 27 30 28 27 28 32 32 31 32 32 32 32 33 35
42 51 55 54 53 51 48 47 45 42 39 39 36 34 29 29 27 29 28 26 28 30 29 30 29 30 31 31 29 27 28 29 29 29 30 33 34 34
44 50 60 57 54 52 50 50 46 47 41 34 33 28 27 28 28 27 26 27 29 27 27 29 30 25 26 29 26 22 21 24 25 24 24 24 26 29
29 43 59 58 53 51 51 52 50 44 40 36 33 32 30 26 27 26 27 26 27 29 27 26 26 24 25 28 26 26 24 25 28 28 28 29 29 29
23 24 44 59 58 54 57 55 48 40 37 33 32 35 30 28 27 28 27 26 28 27 25 26 28 26 24 27 27 27 27 27 28 26 27 25 23 24
12 21 22 38 64 63 53 51 39 34 37 38 33 30 29 28 28 27 27 28 26 25 24 25 25 25 24 25 27 27 27 25 23 24 24 24 22 21
11 13 17 22 28 39 38 36 34 35 32 31 31 28 26 26 26 26 26 26 25 24 24 25 24 23 23 24 24 24 23 19 20 21 20 20 17 16
6 10 14 12 18 23 25 27 27 26 28 28 27 25 24 25 26 25 25 24 25 24 23 24 24 22 22 22 22 22 21 20 19 18 16 15 13 14
8 7 7 8 12 15 18 22 24 25 26 25 24 23 23 24 24 24 23 23 24 24 24 24 23 21 21 20 22 21 20 18 15 14 12 12 12 12
9 7 5 4 8 10 13 16 18 19 20 20 19 19 20 21 23 22 21 22 24 24 24 23 23 22 21 21 20 16 16 14 12 11 11 13 14 14
8 7 6 6 6 7 11 14 14 16 16 16 15 14 15 17 19 19 19 20 21 22 22 22 21 20 20 18 17 15 13 12 12 12 12 13 14 16
7 6 5 5 6 6 7 9 13 11 9 9 10 10 14 16 16 17 17 18 19 20 20 19 19 18 17 16 13 12 11 11 12 11 11 13 14 15
8 6 5 3 2 2 3 6 8 9 10 9 7 9 10 11 12 14 16 17 17 16 17 16 14 13 13 13 12 10 9 9 8 9 11 12 12 12
9 7 5 3 2 2 3 4 6 7 8 7 8 9 9 10 11 12 13 14 14 14 13 13 13 12 11 10 9 7 6 7 9 9 10 12 14 16
Wind_Direction
231 232 225 232 236 230 233 224 221 212 218 218 223 229 230 234 234 233 232 238 238 239 246 245 248 246 246 252 255 257 258 261 267 277 278 277 280 286
229 229 231 229 232 235 234 229 225 226 228 232 232 234 230 232 231 232 236 242 234 235 239 243 244 246 246 249 252 253 255 258 261 267 272 274 279 282
228 224 226 224 231 234 233 235 227 226 230 239 241 234 239 238 230 223 216 224 234 225 224 227 235 241 243 246 248 251 256 260 262 263 267 271 271 274
231 231 230 223 226 233 231 232 235 233 228 232 238 234 234 223 220 217 226 236 234 232 235 236 237 241 246 249 250 251 252 256 261 262 263 266 268 269
231 232 230 225 221 225 230 232 233 234 237 234 238 231 231 226 225 226 233 233 235 239 240 240 243 245 246 248 251 254 256 257 259 262 264 266 268 269
236 235 232 228 219 220 228 230 232 231 234 233 234 233 229 224 224 230 228 229 235 238 238 240 244 247 249 250 256 258 258 262 261 263 264 265 267 267
236 235 229 230 224 221 223 228 228 227 225 226 227 233 231 218 219 222 228 229 237 238 242 247 248 249 252 255 257 259 260 262 267 265 268 268 268 266
230 236 228 224 222 220 225 233 229 223 225 223 226 229 233 228 220 223 222 227 236 239 242 246 251 254 255 259 260 263 265 264 262 263 266 267 265 262
228 234 224 219 221 220 228 229 226 230 229 227 225 225 224 221 222 221 224 230 234 238 244 246 250 261 268 267 266 267 270 268 267 268 268 267 266 262
226 227 224 220 212 226 219 221 224 224 224 223 229 228 224 225 223 230 239 237 239 242 243 256 267 274 273 272 263 268 273 270 269 267 267 265 267 268
226 226 222 219 220 217 214 214 219 221 217 218 220 220 221 219 222 223 228 231 232 235 244 258 266 273 272 272 274 272 276 276 275 274 271 269 267 267
226 223 214 205 218 216 215 209 213 212 204 203 200 204 211 213 214 223 227 234 241 250 254 262 270 275 282 284 282 277 282 283 284 280 278 275 273 269
211 213 218 214 215 211 212 206 205 201 197 199 197 199 207 216 224 233 239 241 241 249 257 265 273 275 272 274 273 276 282 282 284 277 278 278 276 272
189 188 195 215 217 207 200 197 197 193 190 198 209 207 207 218 227 232 235 240 244 250 254 256 261 265 273 279 275 276 280 285 282 278 276 275 274 271
108 135 148 165 198 194 190 187 183 190 191 191 203 217 223 226 228 227 228 234 241 247 252 254 256 264 268 272 275 281 282 281 277 275 276 276 272 263
69 102 123 132 152 164 172 173 183 191 197 210 217 218 220 219 219 219 225 232 238 246 250 250 252 260 262 266 271 275 277 275 279 279 279 279 275 263
21 65 97 127 145 154 160 169 178 194 202 205 207 208 211 216 221 224 228 232 237 242 247 243 248 251 256 261 265 268 272 274 276 278 277 277 272 262
72 65 79 127 125 140 162 173 185 194 196 201 205 207 212 218 222 224 228 232 237 240 242 243 247 250 251 257 263 268 268 269 271 272 271 273 276 275
74 73 62 91 121 141 154 159 167 178 190 192 200 206 211 216 219 222 226 231 234 235 239 244 246 247 252 253 258 260 258 257 258 261 269 277 284 284
84 87 72 73 139 152 155 161 168 173 177 183 189 194 211 218 219 221 227 232 236 240 242 245 246 247 246 245 254 258 250 249 252 262 270 278 284 285
93 99 92 79 106 138 146 166 172 157 161 171 185 203 215 221 227 230 229 231 234 237 241 243 245 246 241 241 239 240 244 251 261 273 287 287 290 292
96 90 81 68 25 59 132 164 167 173 187 175 192 210 215 218 224 231 230 230 232 232 233 238 233 227 224 225 232 240 250 263 276 278 283 290 298 296
82 87 97 104 123 230 241 208 204 202 208 200 223 217 220 222 227 228 224 222 220 218 215 212 209 206 210 218 228 241 257 271 283 293 298 300 298 299